Find Starlink 6319

NORAD ID: 56532 Int'l Des: 2023-065 Owner: SPXS Country: US Constellation: starlink operational
LEOCIRCULAR

当前视图

正在加载3D地球...

About Starlink 6319

Starlink 6319 (NORAD 56532) is a starlink constellation satellite (v1.5) launched May 14, 2023 by SPXS of US. It operates in LEO, CIRCULAR orbit with a mass of 305.00 kg.

关于 Starlink 6319

正在加载描述...

即将过境

Passes for default location (London). Set your location on the main map for personalized predictions.

高度历史

Loading altitude history...

两行轨道根数

1 56532U 23065AF 26195.07824333 -.00001771 00000-0 -54875-4 0 9991
2 56532 43.0029 204.4590 0000881 280.1699 79.9053 15.27566637176091
Epoch: Jul 14, 2026 • Age: 22 hours

当前状态

高度 494.7 km
远地点 / 近地点 N/A
速度 7.62 km/s
星下点 -40.51°S, 152.16°W
发射日期 May 14, 2023
运行时间 3.1 years
类型 internet

技术详情

分类 Payload
质量 305.00 kg
干质量 290.00 kg
总质量 305.00 kg
长度 0.20 m
直径 2.80 m
跨度 9.00 m
形状 Box + pan
制造商 SPXS
平台类型 Starlink
阶段状态 In Orbit
所有者/国家 SPXS/US

Most Searched